Weather Roundup
Issued by NWS Springfield, MO

Home | Current Version | Previous Version | Text Only | Print | Product List | Glossary On
Versions: 1 2 3 4 5 6 7 8 9 10 11 12 13 14 15 16 17 18 19 20 21 22 23 24 25 26 27 28 29 30 31 32 33 34 35 36 37 38 39 40 41 42 43 44 45 46 47 48 49 50
769
NZUS99 KSGF 130907
HRRSGF

HOURLY WEATHER
NATIONAL WEATHER SERVICE SPRINGFIELD MO
300 AM CST SAT FEB 13 2016

......SGF CWA......

CITY           SKY/WX    TMP DP  RH WIND       PRES   REMARKS
SPRINGFIELD    CLOUDY    23   3  42 NE10      30.51S WCI  12
JOPLIN         CLOUDY    26   6  42 NE10      30.54F WCI  16
WEST PLAINS    CLOUDY    23   8  52 N10       30.50R WCI  12
ROLLA          CLOUDY    15   3  59 N12       30.53R WCI   2
OSAGE BEACH    CLOUDY    18   1  49 N7        30.58R WCI   8

......SURROUNDING SGF CWA......

CITY           SKY/WX    TMP DP  RH WIND       PRES   REMARKS
CHANUTE        CLOUDY    27   7  42 NE12      30.55R WCI  17
PARSONS        CLOUDY    29  11  47 NE9       30.55S WCI  20
COFFEYVILLE    CLOUDY    29  12  49 NE15      30.54S WCI  18
EMPORIA        CLOUDY    22   8  55 NE7       30.55R WCI  13
GROVE OK       CLOUDY    32  14  47 NE7       30.53R WCI  26
ROGERS AR      CLOUDY    29  14  53 NE13      30.47F WCI  19
SILOAM SPRINGS CLOUDY    30  12  47 NE9       30.48S WCI  22
HARRISON AR    CLOUDY    28   9  44 N10       30.49R WCI  19
NEAR YELLVILLE CLOUDY    30   7  37 N6        30.50R WCI  24

......KANSAS AND MISSOURI......

CITY           SKY/WX    TMP DP  RH WIND       PRES   REMARKS
KANSAS CTY INT CLOUDY    16   3  56 NE9       30.60F WCI   4
DOWNTOWN KC    CLOUDY    19   4  51 NE9       30.63S WCI   8
COLUMBIA       CLOUDY    15   5  64 N12       30.60R WCI   2
SEDALIA        CLOUDY    17   3  54 N10       30.62S WCI   5
ST JOSEPH      CLOUDY    16   4  59 N10       30.65R WCI   4
ST LOUIS       CLEAR     14   3  61 N13       30.60R WCI   0
SPIRIT OF STL  CLEAR     14   3  61 N10       30.61R WCI   1
KIRKSVILLE     CLOUDY     7  -2  66 N10       30.61S WCI  -8
WICHITA        CLOUDY    28  15  58 NE12      30.50S WCI  18
TOPEKA         CLOUDY    20   3  48 NE12      30.60F WCI   8
OLATHE         CLOUDY    18   1  47 NE8       30.58F WCI   8

......TENNESSEE......

CITY           SKY/WX    TMP DP  RH WIND       PRES   REMARKS
MEMPHIS        PTCLDY    32  13  45 N15G21    30.47F WCI  22
NASHVILLE      CLOUDY    25  12  58 N8        30.45R WCI  16

......ARKANSAS.......

CITY           SKY/WX    TMP DP  RH WIND       PRES   REMARKS
FAYETTEVILLE   CLOUDY    31  17  56 VRB6      30.48R WCI  25
FT SMITH       CLOUDY    42  23  46 NE9       30.45S
LITTLE ROCK    CLOUDY    40  21  46 NE10      30.48S WCI  33

......OKLAHOMA.......

CITY           SKY/WX    TMP DP  RH WIND       PRES   REMARKS
TULSA          CLOUDY    34  18  52 NE10      30.50F WCI  26
PONCA CITY     CLEAR     30  16  56 NE9       30.49S WCI  22
MCALESTER      CLOUDY    43  27  53 NE8G17    30.45R
OKLAHOMA CITY  CLEAR     35  27  72 NE9       30.43S WCI  28

......IOWA............

CITY           SKY/WX    TMP DP  RH WIND       PRES   REMARKS
DES MOINES     CLOUDY     2  -5  72 NW7       30.65R WCI -11
QUAD CITIES    PTCLDY     7  -7  52 N8        30.61R WCI  -6

......ILLINOIS........

CITY           SKY/WX    TMP DP  RH WIND       PRES   REMARKS
QUINCY         PTCLDY     6  -2  69 NW8       30.61R WCI  -7
CHICAGO        PTCLDY     4 -10  52 NW15      30.52R WCI -14




USA.gov is the U.S. government's official web portal to all federal, state and local government web resources and services.